Weather History for Whiteman AFB, MO

Change the Weather History Date:

Thursday, August 2, 2012

  Actual Average Record
Temperature  
Mean Temperature 84 °F -  
Max Temperature 95 °F 86 °F 106 °F (2011)
Min Temperature 75 °F 67 °F 66 °F (1996)
Cooling Degree Days 20    
Growing Degree Days 34 (Base 50)    
Moisture  
Dew Point 68 °F    
Average Humidity 63    
Maximum Humidity 83    
Minimum Humidity 39    
Precipitation  
Precipitation 0.01 in - - ()
Sea Level Pressure  
Sea Level Pressure 29.77 in    
Wind  
Wind Speed 6 mph (NNE)    
Max Wind Speed 15 mph    
Max Gust Speed 23 mph    
Visibility 10 miles    
Events Rain , Thunderstorm    
Averages and records for this station are not official NWS values.
T = Trace of Precipitation, MM = Missing Value Source: NWS Daily Summary

Daily Weather History Graph

Daily Weather History Graph

Search for Another Location

Airport:

Trip Planner

Search our weather history database for the weather conditions in past years. The results will help you decide how hot, cold, wet, or windy it might be!

Date:

Astronomy

Aug. 02, 2012 Rise Set
Actual Time 6:16 AM CDT 8:23 PM CDT
Civil Twilight 5:47 AM CDT 8:52 PM CDT
Nautical Twilight 5:11 AM CDT 9:28 PM CDT
Astronomical Twilight 4:32 AM CDT 10:07 PM CDT
Moon 8:31 PM CDT (8/2) 6:53 AM CDT (8/2)
Length of Visible Light 15h 05m
Length of Day
14h 06m
Full, 100% of the Moon is Illuminated
Aug 2
Full
Aug 9
Last Quarter
Aug 17
New
Aug 24
First Quarter
Aug 31
Full

Hourly Weather History & Observations

Time (CDT) Temp. Heat Index Dew Point Humidity Pressure Visibility Wind Dir Wind Speed Gust Speed Precip Events Conditions
1:55 AM 82.0 °F 84.1 °F 65.8 °F 58% 29.77 in 10.0 mi ESE 6.9 mph - N/A   Clear
2:55 AM 80.4 °F 82.6 °F 66.4 °F 62% 29.75 in 10.0 mi ESE 5.8 mph - N/A   Clear
3:55 AM 79.3 °F - 67.3 °F 66% 29.74 in 10.0 mi SSE 3.5 mph - N/A   Clear
4:55 AM 76.6 °F - 67.6 °F 74% 29.73 in 10.0 mi Calm Calm - N/A   Clear
5:55 AM 75.2 °F - 68.2 °F 79% 29.75 in 10.0 mi Calm Calm - N/A   Clear
6:55 AM 77.0 °F - 68.2 °F 74% 29.79 in 10.0 mi WNW 5.8 mph 21.9 mph N/A   Scattered Clouds
7:55 AM 79.2 °F - 66.2 °F 64% 29.81 in 10.0 mi North 12.7 mph - N/A   Partly Cloudy
8:18 AM 78.8 °F - 66.2 °F 65% 29.83 in 10.0 mi North 12.7 mph - N/A Rain Light Rain
8:39 AM 78.8 °F - 66.2 °F 65% 29.82 in 10.0 mi North 11.5 mph - N/A   Light Drizzle
8:55 AM 78.3 °F - 68.0 °F 71% 29.81 in 10.0 mi NNE 12.7 mph - 0.00 in   Overcast
9:04 AM 77.0 °F - 68.0 °F 74% 29.85 in 10.0 mi NNE 11.5 mph - N/A Rain , Thunderstorm Light Thunderstorms and Rain
9:37 AM 75.2 °F - 69.8 °F 83% 29.78 in 10.0 mi East 9.2 mph - N/A Rain Light Rain
9:45 AM 75.2 °F - 69.8 °F 83% 29.76 in 10.0 mi East 8.1 mph - N/A   Overcast
9:55 AM 75.9 °F - 69.6 °F 81% 29.75 in 10.0 mi East 8.1 mph - 0.01 in   Overcast
10:55 AM 79.5 °F - 70.0 °F 72% 29.72 in 10.0 mi South 9.2 mph - 0.00 in   Mostly Cloudy
11:55 AM 81.9 °F 84.8 °F 68.2 °F 63% 29.76 in 10.0 mi South 15.0 mph 23.0 mph N/A   Mostly Cloudy
12:55 PM 84.7 °F 89.7 °F 70.7 °F 63% 29.81 in 10.0 mi North 8.1 mph - N/A   Scattered Clouds
1:55 PM 85.1 °F 89.1 °F 69.1 °F 59% 29.80 in 10.0 mi NNE 8.1 mph - N/A   Scattered Clouds
2:55 PM 87.4 °F 91.5 °F 69.1 °F 54% 29.78 in 10.0 mi Calm Calm - N/A   Scattered Clouds
3:55 PM 92.7 °F 97.7 °F 69.1 °F 46% 29.76 in 10.0 mi Calm Calm - N/A   Clear
4:55 PM 94.6 °F 98.9 °F 67.8 °F 41% 29.74 in 10.0 mi West 6.9 mph - N/A   Clear
5:55 PM 93.9 °F 97.5 °F 67.3 °F 41% 29.73 in 10.0 mi Variable 4.6 mph - N/A   Partly Cloudy
6:55 PM 94.5 °F 99.1 °F 68.0 °F 42% 29.73 in 10.0 mi NW 6.9 mph - N/A   Clear
7:55 PM 91.8 °F 93.0 °F 63.7 °F 39% 29.74 in 10.0 mi NNW 8.1 mph - N/A   Clear
8:55 PM 84.7 °F 86.6 °F 65.1 °F 52% 29.75 in 10.0 mi NNE 3.5 mph - N/A   Clear
9:55 PM 81.9 °F 83.5 °F 64.8 °F 56% 29.77 in 10.0 mi Calm Calm - N/A   Clear
10:55 PM 79.7 °F - 66.2 °F 63% 29.78 in 10.0 mi Calm Calm - N/A   Clear
11:55 PM 78.3 °F - 65.3 °F 64% 29.77 in 10.0 mi Calm Calm - N/A   Clear